Location: Newark
(49.3000°N, 9.4667°E)
Time: 23:31:17
(UTC+00:00)

Transit 2A Rocket - Pass Details

Date: 20 May 2019
Orbit: 586 x 917 km, 66.7° (Epoch: 14 June)

Event Time Altitude Azimuth Distance (km) Brightness Sun altitude
Rises 21:59:39 0° 305° (NW) 3,552 9.3 -18.4°
Reaches altitude 10° 22:03:35 10° 329° (NNW) 2,582 8.9 -18.6°
Maximum altitude 22:06:43 14° 1° (N) 2,251 8.4 -18.8°
Drops below altitude 10° 22:09:46 10° 33° (NNE) 2,503 8.2 -19.0°
Sets 22:13:29 0° 57° (ENE) 3,372 8.5 -19.1°
